Location: Norton
(51.3000°N, 0.8167°E)
Time: 18:00:32
(UTC+00:00)

Cosmos 1500 - Pass Details

Date: 03 March 2021
Orbit: 499 x 517 km, 82.5° (Epoch: 12 April)

Event Time Altitude Azimuth Distance (km) Brightness Sun altitude
Rises 18:47:59 0° 176° (S) 2,581 6.7 -11.2°
Reaches altitude 10° 18:50:07 10° 171° (S) 1,702 5.7 -11.6°
Maximum altitude 18:53:44 50° 95° (E) 645 3.3 -12.1°
Drops below altitude 10° 18:57:23 10° 20° (NNE) 1,718 5.7 -12.7°
Sets 18:59:32 0° 15° (NNE) 2,608 6.7 -13.0°
